Hourly Data Report for January 10, 1982

All times are specified in Local Standard Time (LST). Add 1 hour to adjust for Daylight Saving Time where and when it is observed.

Metadata including Station Name, Province, Latitude, Longitude, Elevation, Climate ID, WMO ID, TC ID
THUNDER BAY A
ONTARIO
Latitude: 48°22'10.000" N Longitude: 89°19'38.038" W Elevation: 199.00 m
Climate ID: 6048261 WMO ID: TC ID: YQT
Hourly Data Report for January 10, 1982
Temp Definition
°C

Dew Point Temp Definition
°C

Rel Hum Definition
%

Wind Dir Definition
10's deg
Wind Spd Definition
km/h

Visibility Definition
km

Stn Press Definition
kPa

Hmdx Definition

Wind Chill Definition

Weather Definition

TIME
00:00 -31.9 -39.2 48 27 37 24.1 99.88 -50 Clear
01:00 -32.2 -39.3 49 28 31 24.1 99.82 -49 Clear
02:00 -32.5 -38.8 53 28 44 24.1 99.69 -52 Clear
03:00 -32.5 -38.7 54 27 37 24.1 99.62 -50 Clear
04:00 -32.8 -39.0 54 26 35 24.1 99.49 -50 Clear
05:00 -32.3 -38.7 52 27 37 24.1 99.29 -50 Clear
06:00 -31.3 -36.5 60 27 41 24.1 99.05 -49 Clear
07:00 -30.2 -35.7 58 28 46 19.3 98.82 -49 Mainly Clear
08:00 -36.5     30 44 4.8 98.66 -57 Blowing Snow
09:00 -36.3     28 54 0.8 98.39 -58 Blowing Snow
10:00 -35.5     27 43 0.8 98.36 -55 Blowing Snow
11:00 -34.8     30 44 0.6 98.29 -55 Blowing Snow
12:00 -34.3     28 43 0.4 98.16 -54 Snow,Blowing Snow
13:00 -26.3 -30.9 65 27 46 0.2 97.96 -43 Snow,Blowing Snow
14:00 -24.9 -29.5 66 28 43 0.6 97.96 -41 Snow,Blowing Snow
15:00 -23.3 -27.8 67 28 39 0.4 97.86 -38 Snow,Blowing Snow
16:00 -21.4 -26.6 63 27 33 0.6 97.86 -35 Snow,Blowing Snow
17:00 -19.6 -25.2 61 29 30 1.2 97.86 -32 Snow,Blowing Snow
18:00 -19.2 -25.7 57 29 39 3.2 97.92 -33 Snow,Blowing Snow
19:00 -18.2 -23.7 62 27 31 4.8 98.02 -30 Snow,Blowing Snow
20:00 -17.2 -23.4 59 27 35 6.4 98.09 -30 Snow,Blowing Snow
21:00 -20.3 -28.3 49 27 37 8.0 98.09 -34 Snow,Blowing Snow
22:00 -23.2 -28.0 65 27 33 9.7 98.16 -37 Blowing Snow
23:00 -22.4 -27.6 63 27 30 9.7 98.22 -36 Blowing Snow

Notes on Data Quality.

Legend
  • E = Estimated
  • M = Missing
  • NA = Not Available
  • ‡ = Partner data that is not subject to review by the National Climate Archives